When you browse on this site, cookies collect data to enhance your experience and personalize the content and advertising you see.
Visit our Privacy Policy to learn more. By continuing to use the site, you agree to this use of cookies and data.
  • In Sweden
  • List of Countries
  • For 7 days
  • Water Temperature
  • Weather Map
  • Weather Widgets
  • user-avatar
    Login

    Hourly Weather Shishovka

    Today, 16 September, Monday

    Time Temperature Precipitation Wind Pressure Humidity
    00:00 +8°C° 0.1 mm 2 mps 737 mmHg 96%
    01:00 +8°C° 0.1 mm 2 mps 737 mmHg 96%
    02:00 +7°C° 0 mm 2 mps 736 mmHg 96%
    03:00 +7°C° 0 mm 2 mps 736 mmHg 97%
    04:00 +7°C° 0 mm 1 mps 736 mmHg 97%
    05:00 +7°C° 0 mm 1 mps 736 mmHg 97%
    06:00 +6°C° 0 mm 2 mps 736 mmHg 97%
    07:00 +6°C° 0 mm 2 mps 736 mmHg 97%
    08:00 +7°C° 0.1 mm 3 mps 736 mmHg 92%
    09:00 +9°C° 0.1 mm 3 mps 735 mmHg 87%
    10:00 +10°C° 0.1 mm 4 mps 735 mmHg 82%
    11:00 +11°C° 0.2 mm 4 mps 735 mmHg 76%
    12:00 +12°C° 0.2 mm 5 mps 734 mmHg 70%
    13:00 +12°C° 0.2 mm 5 mps 734 mmHg 64%
    14:00 +12°C° 0.2 mm 5 mps 733 mmHg 66%
    15:00 +12°C° 0.2 mm 5 mps 733 mmHg 68%
    16:00 +12°C° 0.2 mm 5 mps 733 mmHg 70%
    17:00 +9°C° 0.3 mm 5 mps 732 mmHg 77%
    18:00 +8°C° 0.3 mm 5 mps 732 mmHg 84%
    19:00 +7°C° 0.3 mm 4 mps 732 mmHg 91%
    20:00 +7°C° 0.3 mm 5 mps 731 mmHg 92%
    21:00 +7°C° 0.3 mm 5 mps 730 mmHg 93%
    22:00 +7°C° 0.3 mm 6 mps 730 mmHg 95%
    23:00 +7°C° 0.7 mm 6 mps 729 mmHg 95%

    Tomorrow, 17 September, Tuesday

    Time Temperature Precipitation Wind Pressure Humidity
    00:00 +8°C° 0.7 mm 6 mps 728 mmHg 95%
    01:00 +8°C° 0.7 mm 6 mps 728 mmHg 95%
    02:00 +8°C° 0.7 mm 6 mps 728 mmHg 95%
    03:00 +8°C° 0.7 mm 6 mps 728 mmHg 94%
    04:00 +8°C° 0.7 mm 6 mps 728 mmHg 93%
    05:00 +8°C° 0.1 mm 6 mps 728 mmHg 94%
    06:00 +8°C° 0.1 mm 5 mps 728 mmHg 94%
    07:00 +8°C° 0.1 mm 5 mps 728 mmHg 95%
    08:00 +8°C° 0.1 mm 5 mps 729 mmHg 94%
    09:00 +8°C° 0.1 mm 5 mps 729 mmHg 92%
    10:00 +8°C° 0.1 mm 5 mps 729 mmHg 91%
    11:00 +9°C° 0.1 mm 6 mps 730 mmHg 87%
    12:00 +10°C° 0.1 mm 6 mps 730 mmHg 83%
    13:00 +11°C° 0.1 mm 6 mps 730 mmHg 79%
    14:00 +11°C° 0.2 mm 6 mps 730 mmHg 79%
    15:00 +12°C° 0.2 mm 5 mps 730 mmHg 79%
    16:00 +12°C° 0.2 mm 5 mps 730 mmHg 79%
    17:00 +11°C° 0.5 mm 4 mps 730 mmHg 83%
    18:00 +10°C° 0.5 mm 4 mps 729 mmHg 87%
    19:00 +9°C° 0.5 mm 3 mps 729 mmHg 92%
    20:00 +8°C° 0.4 mm 4 mps 729 mmHg 92%
    21:00 +8°C° 0.4 mm 4 mps 729 mmHg 92%
    22:00 +8°C° 0.4 mm 4 mps 729 mmHg 93%
    23:00 +7°C° 0.2 mm 4 mps 729 mmHg 94%

    Day after tomorrow, 18 September, Wednesday

    Time Temperature Precipitation Wind Pressure Humidity
    00:00 +7°C° 0.2 mm 4 mps 729 mmHg 95%
    01:00 +7°C° 0.2 mm 3 mps 729 mmHg 96%
    02:00 +7°C° 0 mm 3 mps 729 mmHg 96%
    03:00 +7°C° 0 mm 3 mps 730 mmHg 96%
    04:00 +7°C° 0 mm 3 mps 730 mmHg 97%
    05:00 +7°C° 0.1 mm 3 mps 730 mmHg 96%
    06:00 +7°C° 0.1 mm 3 mps 730 mmHg 96%
    07:00 +6°C° 0.1 mm 4 mps 730 mmHg 96%
    08:00 +7°C° 0 mm 4 mps 730 mmHg 91%
    09:00 +8°C° 0 mm 4 mps 730 mmHg 86%
    10:00 +9°C° 0 mm 5 mps 731 mmHg 81%
    11:00 +10°C° 0.3 mm 5 mps 731 mmHg 79%
    12:00 +10°C° 0.3 mm 5 mps 731 mmHg 77%
    13:00 +12°C° 0.3 mm 5 mps 731 mmHg 75%
    14:00 +10°C° 0.2 mm 5 mps 731 mmHg 76%
    15:00 +11°C° 0.2 mm 4 mps 731 mmHg 76%
    16:00 +11°C° 0.2 mm 4 mps 731 mmHg 76%
    17:00 +10°C° 0.2 mm 4 mps 731 mmHg 80%
    18:00 +9°C° 0.2 mm 3 mps 731 mmHg 83%
    19:00 +8°C° 0.2 mm 3 mps 731 mmHg 87%
    20:00 +8°C° 0.1 mm 3 mps 731 mmHg 89%
    21:00 +7°C° 0.1 mm 3 mps 731 mmHg 90%
    22:00 +5°C° 0.1 mm 3 mps 731 mmHg 92%
    23:00 +7°C° 0.2 mm 3 mps 730 mmHg 93%

    19 September, Thursday

    Time Temperature Precipitation Wind Pressure Humidity
    00:00 +7°C° 0.2 mm 3 mps 730 mmHg 94%
    01:00 +7°C° 0.2 mm 2 mps 730 mmHg 95%
    02:00 +7°C° 0.1 mm 2 mps 730 mmHg 96%
    03:00 +7°C° 0.1 mm 2 mps 729 mmHg 97%
    04:00 +7°C° 0.1 mm 2 mps 729 mmHg 97%
    05:00 +7°C° 1.1 mm 2 mps 728 mmHg 97%
    06:00 +7°C° 1.1 mm 2 mps 726 mmHg 97%
    07:00 +7°C° 1.1 mm 2 mps 725 mmHg 98%
    08:00 +7°C° 3 mm 3 mps 724 mmHg 97%
    09:00 +6°C° 3 mm 4 mps 722 mmHg 96%
    10:00 +6°C° 3 mm 5 mps 721 mmHg 96%
    11:00 +5°C° 5.6 mm 6 mps 720 mmHg 96%
    12:00 +5°C° 5.6 mm 6 mps 719 mmHg 95%
    13:00 +4°C° 5.6 mm 6 mps 718 mmHg 95%
    14:00 +5°C° 2.5 mm 7 mps 719 mmHg 94%
    15:00 +5°C° 2.5 mm 8 mps 720 mmHg 93%
    16:00 +5°C° 2.5 mm 8 mps 721 mmHg 92%
    17:00 +5°C° 0.2 mm 7 mps 722 mmHg 91%
    18:00 +5°C° 0.2 mm 6 mps 724 mmHg 90%
    19:00 +6°C° 0.2 mm 5 mps 726 mmHg 90%
    20:00 +6°C° 0 mm 5 mps 727 mmHg 91%
    21:00 +5°C° 0 mm 4 mps 728 mmHg 93%
    22:00 +5°C° 0 mm 4 mps 729 mmHg 94%
    23:00 +4°C° 0 mm 4 mps 730 mmHg 94%

    20 September, Friday

    Time Temperature Precipitation Wind Pressure Humidity
    00:00 +4°C° 0 mm 4 mps 730 mmHg 94%
    01:00 +4°C° 0 mm 4 mps 731 mmHg 94%
    02:00 +4°C° 0 mm 3 mps 732 mmHg 95%
    03:00 +4°C° 0 mm 3 mps 732 mmHg 95%
    04:00 +3°C° 0 mm 3 mps 733 mmHg 96%
    05:00 +3°C° 0 mm 3 mps 734 mmHg 95%
    06:00 +3°C° 0 mm 3 mps 734 mmHg 94%
    07:00 +3°C° 0 mm 3 mps 735 mmHg 93%
    08:00 +4°C° 0 mm 3 mps 735 mmHg 87%
    09:00 +5°C° 0 mm 3 mps 736 mmHg 82%
    10:00 +5°C° 0 mm 3 mps 736 mmHg 76%
    11:00 +7°C° 0 mm 3 mps 737 mmHg 71%
    12:00 +8°C° 0 mm 3 mps 737 mmHg 66%
    13:00 +8°C° 0 mm 4 mps 737 mmHg 61%
    14:00 +9°C° 0.1 mm 3 mps 737 mmHg 62%
    15:00 +8°C° 0.1 mm 3 mps 737 mmHg 64%
    16:00 +8°C° 0.1 mm 3 mps 738 mmHg 66%
    17:00 +7°C° 0 mm 2 mps 738 mmHg 72%
    18:00 +6°C° 0 mm 2 mps 738 mmHg 79%
    19:00 +6°C° 0 mm 1 mps 738 mmHg 85%
    20:00 +6°C° 0 mm 1 mps 738 mmHg 87%
    21:00 +5°C° 0 mm 1 mps 738 mmHg 89%
    22:00 +5°C° 0 mm 1 mps 738 mmHg 91%
    23:00 +4°C° 0 mm 2 mps 739 mmHg 91%

    21 September, Saturday

    Time Temperature Precipitation Wind Pressure Humidity
    00:00 +4°C° 0 mm 2 mps 739 mmHg 91%
    01:00 +5°C° 0 mm 2 mps 739 mmHg 92%
    02:00 +4°C° 0 mm 2 mps 739 mmHg 94%
    03:00 +3°C° 0 mm 2 mps 739 mmHg 96%
    04:00 +2°C° 0 mm 2 mps 739 mmHg 98%
    05:00 +2°C° 0 mm 2 mps 739 mmHg 98%
    06:00 +2°C° 0 mm 2 mps 739 mmHg 97%
    07:00 +2°C° 0 mm 2 mps 739 mmHg 97%
    08:00 +3°C° 0 mm 2 mps 739 mmHg 92%
    09:00 +5°C° 0 mm 2 mps 739 mmHg 86%
    10:00 +6°C° 0 mm 2 mps 739 mmHg 80%
    11:00 +7°C° 0.2 mm 2 mps 739 mmHg 78%
    12:00 +7°C° 0.2 mm 2 mps 739 mmHg 76%
    13:00 +9°C° 0.2 mm 1 mps 738 mmHg 74%
    14:00 +9°C° 0.2 mm 1 mps 738 mmHg 76%
    15:00 +8°C° 0.2 mm 1 mps 738 mmHg 78%
    16:00 +7°C° 0.2 mm 0 mps 737 mmHg 81%
    17:00 +6°C° 0.1 mm 0 mps 737 mmHg 84%
    18:00 +5°C° 0.1 mm 0 mps 737 mmHg 87%
    19:00 +5°C° 0.1 mm 0 mps 737 mmHg 90%
    20:00 +4°C° 0 mm 0 mps 737 mmHg 89%
    21:00 +5°C° 0 mm 1 mps 737 mmHg 89%
    22:00 +5°C° 0 mm 1 mps 736 mmHg 89%
    23:00 +4°C° 0 mm 1 mps 736 mmHg 89%
    Show more